Location: �bnet
(46.9957°N, 8.4908°E)
Time: 09:24:49
(UTC+00:00)

ATLAS CENTAUR R/B - Pass Details

Date: 11 May 2021
Orbit: 472 x 671 km, 64.6° (Epoch: 12 June)

Event Time Altitude Azimuth Distance (km) Brightness Sun altitude
Exits shadow 23:38:22 41° 49° (NE) 728 2.2 -24.8°
Drops below altitude 10° 23:40:57 10° 40° (NE) 1,711 4.5 -24.7°
Sets 23:43:10 0° 39° (NE) 2,627 5.7 -24.7°
